Regional Weather Roundup
Issued by NWS

Home | Current Version | Previous Version | Text Only | Print | Product List | Glossary Off
Versions: 1 2 3 4 5 6 7 8 9 10 11 12 13 14 15 16 17 18 19 20 21 22 23 24 25 26 27 28 29 30 31 32 33 34 35 36 37 38 39 40 41 42 43 44 45 46 47 48 49 50

482
ASUS45 KCYS 200310
RWRWY

WYOMING REGIONAL WEATHER ROUNDUP
NATIONAL WEATHER SERVICE CHEYENNE WY
800 PM MST SUN FEB 19 2017

NOTE:  "FAIR" INDICATES FEW OR NO CLOUDS BELOW 12,000 FEET
WITH NO SIGNIFICANT WEATHER AND/OR OBSTRUCTIONS TO VISIBILITY.

WYZ001-200400-
YELLOWSTONE NATIONAL PARK

CITY           SKY/WX    TMP DP  RH WIND       PRES   REMARKS
LK YELLOWSTONE   N/A     24  20  84 VRB5      29.76R WCI  18
W YELLOWSTONE  NOT AVBL

$$
WYZ002>013-054>058-071-098>099-200400-
NORTHERN WYOMING

CITY           SKY/WX    TMP DP  RH WIND       PRES   REMARKS
JACKSON        CLOUDY    30  28  93 SW15      29.81R WCI  19
CODY           MOCLDY    41  24  51 W21G29    29.67R
GREYBULL       CLOUDY    40  31  70 CALM      29.63R
WORLAND        MOCLDY    39  34  82 E13       29.62R WCI  31
SHERIDAN       RAIN      43  35  73 W18       29.61R
BUFFALO        FAIR      44  30  57 N7        29.62R
GILLETTE       FAIR      46  33  60 NW12      29.56R
HULETT         FAIR      52  34  50 SW10      29.56R
NEWCASTLE      FAIR      50  32  50 SE10      29.62R

$$
WYZ014>020-022>026-101>103-200400-
CENTRAL WYOMING

CITY           SKY/WX    TMP DP  RH WIND       PRES   REMARKS
BIG PINEY      FAIR      26  24  92 CALM      29.84S
PINEDALE       FAIR      28  27  93 NW8       29.85R WCI  20
DUBOIS         MOCLDY    28  19  69 NW13G20   29.76R WCI  18
LANDER         FAIR      43  17  35 MISG      29.71
RIVERTON       FAIR      38  27  64 W9        29.70R WCI  31
CASPER         CLOUDY    42  31  64 SW17      29.65R
DOUGLAS        CLOUDY    47  33  58 SW5       29.65R

$$
WYZ021-027>030-104>119-200400-
SOUTHERN WYOMING

CITY           SKY/WX    TMP DP  RH WIND       PRES   REMARKS
EVANSTON       FLURRIES  32  27  81 W22       29.86R WCI  19
KEMMERER         N/A     28  23  80 W13       29.85R WCI  18
FORT BRIDGER   MOCLDY    32  31  96 W7        29.88R WCI  26
ROCK SPRINGS   FAIR      31  28  89 S9        29.83R WCI  23
DIXON            N/A     33  32  96 N3        29.88R
RAWLINS        CLOUDY    35  29  78 W18       29.79R WCI  24
SARATOGA       CLOUDY    32  32 100 W14G21    29.81R WCI  22
LARAMIE        CLOUDY    33  32  96 N10       29.73R WCI  25
CHEYENNE       LGT RAIN  44  34  67 NW14G24   29.68R
TORRINGTON     MOCLDY    52  33  48 W8        29.62S
PINE BLUFFS    CLOUDY    45  36  70 NW21G28   29.66R

$$




USA.gov is the U.S. government's official web portal to all federal, state and local government web resources and services.